Location: Ferchesar
(52.6477°N, 12.4298°E)
Time: 03:35:16
(UTC+02:00)

Vanguard 3 - Pass Details

Date: 04 March 2021
Orbit: 508 x 3262 km, 33.3° (Epoch: 15 April)

Event Time Altitude Azimuth Distance (km) Brightness Sun altitude
Rises 12:32:11 0° 187° (S) 7,099 13.1 31.1°
Reaches altitude 10° 12:40:15 10° 169° (SSE) 6,194 13.0 31.0°
Maximum altitude 12:49:21 15° 141° (SE) 5,607 12.2 30.8°
Drops below altitude 10° 12:57:45 10° 112° (ESE) 5,703 11.7 30.6°
Sets 13:04:25 0° 94° (E) 6,266 11.6 30.4°
